[[{"header":{"parameterUnit":"m.s-1","parameterCategory":1,"la1":30.2991,"la2":30.254,"lo1":-89.0895,"lo2":-89.0444,"dy":0.0017,"dx":0.0017,"nx":28,"ny":28,"refTime":"2025-11-28T03:00:00:Z","depth":0,"parameterNumber":2,"parameterNumberName":"U-component_of_WINDS"},"data":[0,0,0,0,0,0,0,0,0,0,0,0,0,0,0,0,0,0,0,0,0,0,0,0,0,0,0,0,0,0,0,0,0,0,0,0,0,0,0,0,0,0,0,0,0,0,0,0,0,0,0,0,0,0,0,0,0,0,-0.6859,-0.686,0,-0.6925,-0.6925,-0.6926,-0.688,-0.6878,-0.6876,-0.6874,-0.6944,-0.6948,-0.6951,0,0,0,0,0,0,0,0,0,0,0,0,0,-0.6695,-0.6699,-0.6859,-0.686,-0.6861,-0.6925,-0.6926,-0.6926,-0.688,-0.6878,-0.6875,-0.6873,-0.6943,-0.6947,-0.6952,0,0,0,0,0,0,0,0,0,0,0,0,0,-0.6764,-0.67,-0.6859,-0.6845,-0.6845,-0.6924,-0.6926,-0.6927,-0.6881,-0.6878,-0.6875,-0.6872,-0.6941,-0.6947,-0.6952,-0.705,0,0,-0.697,-0.6972,0,0,0,0,0,0,0,0,-0.676,-0.677,-0.6846,-0.6846,-0.6846,-0.6891,-0.6893,-0.6968,-0.6882,-0.6867,-0.6874,-0.687,-0.6929,-0.6936,-0.6955,-0.7053,-0.7056,-0.697,-0.6974,-0.6976,-0.6978,0,0,0,0,0,0,0,-0.6756,-0.6767,-0.6885,-0.6848,-0.6847,-0.6837,-0.6843,-0.6907,-0.6915,-0.6868,-0.6865,-0.6873,-0.6928,-0.6949,-0.6956,-0.7057,-0.697,-0.6975,-0.6979,-0.6981,-0.7239,-0.7243,0,0,0,0,0,0,-0.6752,-0.6764,-0.6883,-0.6887,-0.6795,-0.6842,-0.6849,-0.688,-0.6914,-0.6916,-0.6876,-0.6871,-0.6941,-0.695,-0.6958,-0.7076,-0.6976,-0.6982,-0.6985,-0.7236,-0.724,-0.7244,0,0,0,0,0,0,-0.6749,-0.6763,-0.688,-0.6824,-0.6839,-0.6848,-0.6883,-0.6883,-0.6904,-0.692,-0.6921,-0.6896,-0.6939,-0.695,-0.7027,-0.7078,-0.6984,-0.6989,-0.7232,-0.7237,-0.7242,-0.7312,0,0,0,0,0,0,-0.6744,-0.6762,-0.6799,-0.6826,-0.6842,-0.6948,-0.6886,-0.6886,-0.6913,-0.6908,-0.6939,-0.6941,-0.6938,-0.7019,-0.7033,-0.7084,-0.6994,-0.7228,-0.7234,-0.724,-0.7305,-0.7318,-0.733,0,0,0,0,0,-0.6738,-0.6816,-0.6801,-0.6816,-0.6888,-0.6951,-0.696,-0.6954,-0.6918,-0.6955,-0.6965,-0.694,-0.7069,-0.7028,-0.7043,-0.7096,-0.7224,-0.7232,-0.724,-0.7299,-0.7316,-0.733,0,0,0,0,0,0,-0.6796,-0.6819,-0.6803,-0.6891,-0.692,-0.6943,-0.699,-0.6971,-0.7011,-0.7004,-0.6994,-0.7002,-0.7083,-0.7096,-0.705,-0.7192,-0.7141,-0.7152,-0.7181,-0.7197,-0.7209,-0.7206,-0.6998,0,0,0,0,0,-0.6819,-0.6868,-0.6885,-0.6962,-0.6977,-0.6981,-0.7008,-0.7001,-0.703,-0.7042,-0.7057,-0.7087,-0.7134,-0.7166,-0.721,-0.7305,-0.7313,-0.7349,-0.7362,-0.7372,-0.7383,-0.7436,-0.7453,-0.7269,-0.7269,-0.7269,0,0,-0.6867,-0.6886,-0.6918,-0.6974,-0.6995,-0.7047,-0.6992,-0.7048,-0.7087,-0.705,-0.7125,-0.7137,-0.7169,-0.7256,-0.7296,-0.7271,-0.7435,-0.7382,-0.739,-0.7396,-0.7446,-0.7463,-0.7478,-0.7275,-0.7274,-0.7273,0,0,-0.6982,-0.7,-0.7067,-0.7088,-0.712,-0.7122,-0.7138,-0.7164,-0.7171,-0.7245,-0.7219,-0.7264,-0.7345,-0.737,-0.7393,-0.7516,-0.7495,-0.753,-0.7598,-0.7649,-0.7664,-0.7676,-0.7722,-0.7739,-0.754,-0.7541,-0.7541,0,-0.7039,-0.7115,-0.7104,-0.7163,-0.7189,-0.7156,-0.7224,-0.7246,-0.7291,-0.731,-0.728,-0.7382,-0.7401,-0.7494,-0.7524,-0.7543,-0.7562,-0.7528,-0.7662,-0.7675,-0.7687,-0.773,-0.7747,-0.7545,-0.7544,-0.7544,-0.7544,0,-0.7184,-0.7237,-0.7287,-0.733,-0.7362,-0.7425,-0.7424,-0.7457,-0.7445,-0.7451,-0.7527,-0.7548,-0.7597,-0.7618,-0.7608,-0.771,-0.7693,-0.7663,-0.7612,-0.7709,-0.775,-0.7766,-0.7551,-0.7549,-0.7548,-0.7547,0,0,-0.734,-0.7375,-0.7394,-0.7414,-0.7446,-0.7487,-0.7548,-0.7595,-0.7624,-0.7655,-0.7708,-0.7777,-0.7749,-0.7775,-0.7767,-0.7812,-0.791,-0.7776,-0.7777,-0.7803,-0.8026,-0.805,-0.807,-0.7895,-0.7898,-0.79,-0.8024,0,-0.7459,-0.7566,-0.7557,-0.7658,-0.7708,-0.7677,-0.773,-0.7756,-0.7763,-0.7806,-0.7812,-0.7862,-0.7821,-0.7837,-0.7879,-0.7889,-0.7955,-0.788,-0.7945,-0.7948,-0.7941,-0.8091,-0.8117,-0.8232,-0.8039,-0.8042,-0.8044,0,-0.7612,-0.7648,-0.7755,-0.7779,-0.78,-0.7848,-0.7891,-0.7932,-0.796,-0.7961,-0.799,-0.7974,-0.8037,-0.7982,-0.8069,-0.8018,-0.8043,-0.8052,-0.8056,-0.8065,-0.8004,-0.8106,-0.8269,-0.8287,-0.8069,-0.8067,-0.8065,0,-0.7718,-0.7794,-0.7867,-0.7885,-0.7915,-0.795,-0.7964,-0.7989,-0.8017,-0.8054,-0.8073,-0.8116,-0.8141,-0.8175,-0.8171,-0.8131,-0.826,-0.8204,-0.8265,-0.8265,-0.8296,-0.8295,-0.8469,-0.8308,-0.8307,-0.8307,-0.8307,0,-0.7854,-0.7921,-0.7916,-0.7962,-0.8036,-0.8024,-0.8098,-0.8108,-0.8131,-0.8178,-0.8153,-0.8199,-0.819,-0.8235,-0.8232,-0.8306,-0.8316,-0.832,-0.8319,-0.8324,-0.8324,-0.8344,-0.8337,-0.8312,-0.8311,-0.831,-0.8309,0,-0.7987,-0.7986,-0.8064,-0.8085,-0.8092,-0.8146,-0.8165,-0.8208,-0.8211,-0.8272,-0.8286,-0.8291,-0.8343,-0.8342,-0.8401,-0.8399,-0.849,-0.8478,-0.8481,-0.8479,-0.8541,-0.8536,-0.8735,-0.8762,-0.8581,-0.8583,-0.8584,0,-0.8075,-0.8126,-0.8152,-0.8182,-0.8198,-0.8246,-0.8275,-0.8265,-0.8296,-0.8332,-0.8371,-0.842,-0.846,-0.8544,-0.8554,-0.8599,-0.859,-0.8657,-0.8597,-0.8601,-0.8595,-0.8593,-0.8599,-0.867,-0.8672,-0.8674,-0.8675,0,-0.8232,-0.8228,-0.8271,-0.8313,-0.8348,-0.8381,-0.8411,-0.8437,-0.843,-0.8466,-0.8518,-0.8549,-0.8609,-0.8659,-0.8702,-0.8717,-0.8696,-0.8693,-0.871,-0.8717,-0.8718,-0.8721,-0.8516,-0.8689,-0.8688,-0.8687,-0.8686,-0.8685,-0.8347,-0.8391,-0.8417,-0.8465,-0.8486,-0.8514,-0.8556,-0.8564,-0.8607,-0.8656,-0.8646,-0.8706,-0.8732,-0.8788,-0.8806,-0.8853,-0.883,-0.8854,-0.886,-0.8867,-0.8875,-0.8707,-0.886,-0.886,-0.886,-0.8859,-0.8859,0,-0.8505,-0.8519,-0.8563,-0.8606,-0.8644,-0.8618,-0.865,-0.8684,-0.8736,-0.8762,-0.8801,-0.8862,-0.8909,-0.8922,-0.8968,-0.9003,-0.8995,-0.9016,-0.9015,-0.9019,-0.8892,-0.8874,-0.9022,-0.9022,-0.9022,-0.9022,-0.9022,-0.9022,-0.8592,-0.8666,-0.8666,-0.875,-0.8763,-0.8821,-0.8842,-0.8868,-0.8889,-0.8958,-0.8997,-0.9004,-0.9025,-0.9072,-0.9116,-0.9118,-0.9137,-0.9163,-0.9162,-0.9044,-0.9028,-0.9012,-0.8996,-0.9167,-0.9167,-0.9286,-0.9287,-0.9288]},{"header":{"parameterUnit":"m.s-1","parameterCategory":1,"la1":30.2991,"la2":30.254,"lo1":-89.0895,"lo2":-89.0444,"dy":0.0017,"dx":0.0017,"nx":28,"ny":28,"refTime":"2025-11-28T03:00:00:Z","depth":0,"parameterNumber":3,"parameterNumberName":"V-component_of_WINDS"},"data":[0,0,0,0,0,0,0,0,0,0,0,0,0,0,0,0,0,0,0,0,0,0,0,0,0,0,0,0,0,0,0,0,0,0,0,0,0,0,0,0,0,0,0,0,0,0,0,0,0,0,0,0,0,0,0,0,0,0,-7.0257,-7.0259,0,-7.0428,-7.0429,-7.0431,-7.0325,-7.032,-7.0315,-7.031,-7.0478,-7.0487,-7.0496,0,0,0,0,0,0,0,0,0,0,0,0,0,-6.9834,-6.9842,-7.0257,-7.0259,-7.0261,-7.0427,-7.043,-7.0432,-7.0326,-7.032,-7.0314,-7.0308,-7.0475,-7.0486,-7.0497,0,0,0,0,0,0,0,0,0,0,0,0,0,-7.0012,-6.9845,-7.0257,-7.0229,-7.0228,-7.0427,-7.043,-7.0432,-7.0327,-7.032,-7.0312,-7.0305,-7.0472,-7.0485,-7.0498,-7.0732,0,0,-7.054,-7.0546,0,0,0,0,0,0,0,0,-7.0002,-7.0028,-7.0231,-7.0231,-7.023,-7.0347,-7.0342,-7.0533,-7.0329,-7.0289,-7.031,-7.0302,-7.044,-7.0456,-7.0504,-7.074,-7.0747,-7.0541,-7.055,-7.0556,-7.0559,0,0,0,0,0,0,0,-6.999,-7.002,-7.0324,-7.0234,-7.0234,-7.0205,-7.0223,-7.0377,-7.0404,-7.0292,-7.0285,-7.0307,-7.0439,-7.0491,-7.0507,-7.075,-7.0541,-7.0553,-7.0562,-7.0567,-7.1186,-7.1194,0,0,0,0,0,0,-6.9981,-7.001,-7.0319,-7.0329,-7.0096,-7.0219,-7.0238,-7.0317,-7.0403,-7.0408,-7.0313,-7.0301,-7.0472,-7.0492,-7.0513,-7.0793,-7.0555,-7.0568,-7.0576,-7.1178,-7.1188,-7.1197,0,0,0,0,0,0,-6.9972,-7.0009,-7.0312,-7.0168,-7.0204,-7.0235,-7.0324,-7.0325,-7.0377,-7.0418,-7.0422,-7.0362,-7.0467,-7.0494,-7.0679,-7.0797,-7.0574,-7.0587,-7.1168,-7.1181,-7.1193,-7.1355,0,0,0,0,0,0,-6.996,-7.0007,-7.0098,-7.0171,-7.0213,-7.0478,-7.0331,-7.0333,-7.0402,-7.0388,-7.0466,-7.0471,-7.0463,-7.0659,-7.0693,-7.0812,-7.0598,-7.1158,-7.1174,-7.1189,-7.134,-7.1372,-7.1399,0,0,0,0,0,-6.9946,-7.0135,-7.0103,-7.0141,-7.0327,-7.0485,-7.0508,-7.0497,-7.0412,-7.0502,-7.0529,-7.0469,-7.0779,-7.0679,-7.0716,-7.0841,-7.115,-7.117,-7.1188,-7.1326,-7.1365,-7.1399,0,0,0,0,0,0,-7.0072,-7.0144,-7.0109,-7.0328,-7.0402,-7.0467,-7.0581,-7.0539,-7.0636,-7.0619,-7.0598,-7.0616,-7.0811,-7.0844,-7.0732,-7.1072,-7.0951,-7.0978,-7.1044,-7.1081,-7.1111,-7.1099,-7.0609,0,0,0,0,0,-7.0126,-7.0251,-7.0306,-7.0494,-7.0533,-7.0551,-7.0619,-7.0604,-7.0678,-7.0708,-7.0748,-7.082,-7.0934,-7.1009,-7.1116,-7.1343,-7.1358,-7.1447,-7.1477,-7.1502,-7.1525,-7.1648,-7.1689,-7.1258,-7.1258,-7.1258,0,0,-7.0238,-7.0293,-7.0372,-7.0521,-7.0576,-7.0703,-7.0577,-7.0717,-7.0812,-7.0728,-7.0907,-7.0939,-7.1018,-7.1226,-7.1319,-7.126,-7.1648,-7.1525,-7.1544,-7.1555,-7.1672,-7.1712,-7.1749,-7.1271,-7.1268,-7.1266,0,0,-7.0508,-7.0562,-7.0725,-7.0783,-7.0869,-7.088,-7.0919,-7.0991,-7.101,-7.1189,-7.113,-7.1239,-7.1436,-7.1495,-7.1551,-7.1844,-7.1792,-7.1879,-7.2035,-7.2155,-7.2189,-7.2219,-7.2324,-7.2362,-7.1902,-7.1902,-7.1902,0,-7.0635,-7.0828,-7.0813,-7.0959,-7.1026,-7.0959,-7.1123,-7.1179,-7.1295,-7.1341,-7.1273,-7.1519,-7.1567,-7.1788,-7.186,-7.1907,-7.1951,-7.187,-7.2186,-7.2216,-7.2243,-7.2343,-7.2383,-7.1912,-7.1911,-7.191,-7.1909,0,-7.0981,-7.1115,-7.1236,-7.1352,-7.1432,-7.1586,-7.1594,-7.1676,-7.1654,-7.1671,-7.1854,-7.191,-7.2028,-7.2079,-7.2057,-7.2297,-7.2258,-7.2188,-7.2066,-7.2295,-7.2388,-7.2426,-7.1927,-7.1923,-7.192,-7.1918,0,0,-7.1336,-7.1443,-7.1488,-7.154,-7.163,-7.1732,-7.1882,-7.1999,-7.2071,-7.2152,-7.2277,-7.2445,-7.2382,-7.2445,-7.2429,-7.2535,-7.2764,-7.2452,-7.2454,-7.2509,-7.3032,-7.3085,-7.3129,-7.273,-7.2737,-7.2743,-7.3026,0,-7.1611,-7.1877,-7.1869,-7.2115,-7.2239,-7.2176,-7.2307,-7.2375,-7.2396,-7.2501,-7.2522,-7.2642,-7.2549,-7.2587,-7.2689,-7.2715,-7.2869,-7.2694,-7.2845,-7.2851,-7.2829,-7.3178,-7.3234,-7.3499,-7.3062,-7.3068,-7.3073,0,-7.1969,-7.2066,-7.2326,-7.2398,-7.2449,-7.2568,-7.2674,-7.2777,-7.2852,-7.2859,-7.2931,-7.2899,-7.3049,-7.2923,-7.3129,-7.3011,-7.3071,-7.3093,-7.3103,-7.3118,-7.2976,-7.3203,-7.3582,-7.3623,-7.313,-7.3125,-7.3121,0,-7.2203,-7.2398,-7.2579,-7.2625,-7.2713,-7.2798,-7.2838,-7.2907,-7.2978,-7.307,-7.3116,-7.3224,-7.3283,-7.3366,-7.3363,-7.3271,-7.3573,-7.3445,-7.3582,-7.3583,-7.3649,-7.3645,-7.4045,-7.3687,-7.3686,-7.3686,-7.3685,0,-7.2513,-7.2674,-7.2685,-7.2797,-7.2976,-7.2963,-7.314,-7.3171,-7.3232,-7.3347,-7.3298,-7.3407,-7.3396,-7.3505,-7.3502,-7.3674,-7.3701,-7.371,-7.3708,-7.3715,-7.3715,-7.3756,-7.3738,-7.3696,-7.3694,-7.3692,-7.369,0,-7.2805,-7.2819,-7.3012,-7.3081,-7.3102,-7.3231,-7.3288,-7.3393,-7.3409,-7.3555,-7.3588,-7.3613,-7.3739,-7.3744,-7.3887,-7.3886,-7.4095,-7.4072,-7.4071,-7.4067,-7.4204,-7.4192,-7.4645,-7.4704,-7.4307,-7.431,-7.4314,0,-7.3002,-7.3126,-7.3208,-7.3283,-7.333,-7.345,-7.3523,-7.3515,-7.3592,-7.3688,-7.3782,-7.3903,-7.4,-7.4203,-7.4232,-7.4342,-7.4321,-7.4472,-7.4337,-7.4341,-7.4325,-7.4318,-7.433,-7.4499,-7.4504,-7.4507,-7.451,0,-7.3352,-7.3353,-7.3461,-7.3573,-7.3662,-7.3749,-7.3829,-7.3893,-7.3893,-7.3983,-7.4112,-7.4188,-7.4335,-7.4457,-7.4563,-7.4601,-7.4557,-7.4553,-7.459,-7.46,-7.4595,-7.4601,-7.4145,-7.4542,-7.4539,-7.4537,-7.4535,-7.4534,-7.3603,-7.3711,-7.3786,-7.3909,-7.3969,-7.4045,-7.4148,-7.4177,-7.4286,-7.4408,-7.4395,-7.4539,-7.461,-7.4749,-7.4796,-7.4907,-7.4855,-7.4909,-7.4923,-7.4937,-7.4952,-7.4577,-7.4926,-7.4925,-7.4924,-7.4923,-7.4923,0,-7.3951,-7.3997,-7.411,-7.4225,-7.4322,-7.4272,-7.4359,-7.4442,-7.457,-7.4641,-7.4739,-7.4887,-7.5004,-7.5043,-7.5156,-7.5238,-7.522,-7.5268,-7.5262,-7.5272,-7.4992,-7.4949,-7.528,-7.528,-7.528,-7.528,-7.528,-7.528,-7.4144,-7.4323,-7.4333,-7.4541,-7.4584,-7.4727,-7.4781,-7.485,-7.4907,-7.5077,-7.5175,-7.52,-7.5258,-7.5375,-7.548,-7.5488,-7.5532,-7.559,-7.5589,-7.5327,-7.5291,-7.5257,-7.5217,-7.5599,-7.5599,-7.586,-7.5862,-7.5864]}]]